Zurück zum Katalog

STARLINK-31690

AktivKommunikationVLEO
NORAD 59581·PAYLOAD·🇺🇸 United States

Gestartet Apr 23, 2024 von Cape Canaveral Space Force Station

Loading…

Nächste Überflüge (nächste 24 Stunden)

TLE

AktuellSource: CelesTrak SupGP

Epoche: Sep 14, 2026, 20:59 UTC

1 59581C 24076T   26257.87479167  .00043556  00000+0  15780-2 0  2570
2 59581  43.0031  20.4086 0001621 279.2693 240.4152 15.27548116    18

Verfolge STARLINK-31690 in Echtzeit mit AllMySat

Download on the App Store